Location: Freistadt
(48.5112°N, 14.5013°E)
Time: 00:03:04
(UTC+01:00)

VELOX 1 - Visible Passes

Search period start: 21 February 2024 00:00
Search period end: 02 March 2024 00:00
Orbit: 608 x 622 km, 98.4° (Epoch: 20 February)

Date Brightness Start Highest point End Pass type
(mag) Time Alt. Az. Time Alt. Az. Time Alt. Az.
21 Feb?19:59:20S19:59:20S19:48:00NNEvisible
22 Feb ? 05:13:07 10° E 05:15:07 13° ENE 05:17:06 10° NNE visible
22 Feb?20:15:08SSW20:15:08SSW20:04:23NNEvisible
23 Feb ? 05:27:47 10° ESE 05:30:38 18° ENE 05:33:29 10° NNE visible
23 Feb ? 20:20:23 10° N 20:30:54 - SSW 20:20:47 12° N visible
24 Feb ? 05:42:46 10° ESE 05:46:11 23° ENE 05:49:36 10° N visible
24 Feb?19:09:36SSE19:09:36SSE19:00:06NEvisible
24 Feb ? 20:36:12 10° N 20:37:10 16° N 20:37:10 16° N visible
25 Feb ? 05:57:57 10° SE 06:01:45 31° ENE 06:05:34 10° N visible
25 Feb ? 19:16:04 10° NNE 19:25:19 - SSE 19:16:31 12° NE visible
25 Feb ? 20:52:05 10° N 20:53:36 19° NNW 20:53:36 19° NNW visible
26 Feb ? 06:13:16 10° SE 06:17:21 43° ENE 06:21:26 10° N visible
26 Feb ? 19:31:32 10° NNE 19:41:01 - S 19:32:57 19° NE visible
26 Feb ? 21:08:04 10° NNW 21:10:03 19° NW 21:10:03 19° NW visible
27 Feb ? 19:47:07 10° NNE 19:56:41 - S 19:49:25 31° NNE visible
27 Feb ? 21:24:11 10° NNW 21:26:31 16° NW 21:26:31 16° NW visible
28 Feb ? 05:11:37 10° E 05:13:19 12° NE 05:15:02 10° NNE visible
28 Feb?18:35:13SE18:35:13SE18:28:50ENEvisible
28 Feb ? 20:02:44 10° NNE 20:12:16 - SSW 20:05:56 50° NNE visible
28 Feb ? 21:40:35 10° NNW 21:42:20 12° NW 21:43:02 12° WNW visible
29 Feb ? 05:26:07 10° E 05:28:47 16° ENE 05:31:28 10° NNE visible
29 Feb ? 18:43:49 10° NE 18:50:46 - SE 18:45:24 14° ENE visible
29 Feb ? 20:18:25 10° N 20:27:48 - SSW 20:22:31 62° WNW visible
01 Mar ? 05:40:59 10° ESE 05:44:16 22° ENE 05:47:33 10° NNE visible
01 Mar ? 18:58:49 10° NE 19:02:05 21° E 19:02:05 21° E visible
01 Mar ? 20:34:10 10° N 20:38:15 44° WNW 20:39:12 38° WSW visible
